Location: St. Louis
(38.6270°N, 90.1994°W)
Time: 02:18:34
(UTC-06:00)

Transit 2A - Pass Details

Date: 03 December 2021
Orbit: 591 x 966 km, 66.7° (Epoch: 24 January)

Event Time Altitude Azimuth Distance (km) Brightness Sun altitude
Rises 10:22:30 0° 319° (NW) 3,657 9.0 25.8°
Reaches altitude 10° 10:25:29 10° 308° (NW) 2,692 8.4 26.0°
Maximum altitude 10:30:35 26° 254° (WSW) 1,731 8.0 26.3°
Drops below altitude 10° 10:35:27 10° 200° (SSW) 2,551 9.6 26.7°
Sets 10:38:14 0° 188° (S) 3,430 10.3 26.8°
